CAPE
0 0 0 0 0 0 0 0 0 0 283 227 252 305 339 772 730 999 922 576 582 571 485 305 224 121 69 94 273 433 882 2143 1114 809 690 697 813 998 1774 1641 1673 1759 1877 1916
0 0 0 0 0 0 0 0 0 0 43 238 222 292 410 648 706 948 975 750 580 636 518 336 253 149 80 175 452 1238 1374 2284 1359 794 1221 934 1281 787 811 814 1714 1773 1628 2016
0 0 0 0 0 0 0 0 0 0 0 142 226 282 297 363 628 808 926 975 514 650 687 503 343 206 122 258 476 1417 1956 2246 1763 1494 1200 1244 1307 1422 866 1560 1406 1874 1908 2058
0 0 0 0 0 0 0 0 0 0 0 10 79 250 161 58 687 726 918 1003 915 486 683 671 557 387 237 205 381 1523 1796 2354 1891 2012 826 1877 1016 805 651 1182 928 1578 1901 1980
0 0 0 0 0 0 0 0 0 0 0 0 2 30 381 386 690 663 830 956 950 808 559 658 623 606 400 254 377 581 2174 2571 2202 2060 1843 1140 1796 650 595 626 2912 2946 3367 2019
0 0 0 0 0 0 0 0 0 0 0 0 0 15 93 51 164 636 792 852 916 917 750 640 618 671 580 347 361 946 2256 2854 2822 2474 2000 2567 2094 1991 456 903 1535 1007 1631 1852
0 0 0 0 0 0 0 0 0 0 0 0 0 0 8 142 184 159 666 797 853 869 899 771 641 593 750 904 888 1237 2415 2966 2868 2697 1872 2059 2676 2745 3015 2515 1027 1299 579 708
0 0 0 0 0 0 0 0 0 0 0 0 0 0 0 1 89 99 17 539 796 819 829 858 787 688 1102 1209 1276 1463 2319 3146 3107 2699 2621 2151 2587 910 862 1890 976 692 473 618
0 0 0 0 0 0 0 0 0 0 5 0 0 0 0 0 0 64 2 310 423 824 860 815 864 816 1099 1279 1643 1654 2196 3038 3107 2201 3016 3134 2495 1759 856 2192 2675 1570 1942 807
0 0 0 0 0 0 5 2 0 0 4 0 0 0 0 0 0 0 14 94 259 625 920 1007 989 843 822 914 1048 1578 2089 2964 2572 2575 2873 2769 2546 2549 2398 2884 3391 2365 2440 2675
0 0 0 0 0 0 0 0 9 31 4 3 0 0 0 0 0 0 0 0 198 791 800 921 1042 1159 924 821 919 1091 1517 2238 2366 2652 2710 2437 2374 1997 2461 2948 3126 3050 2813 3270
0 0 0 0 0 0 0 2 0 65 42 13 0 10 0 1 0 0 2 8 27 129 537 756 876 1155 1286 1296 1026 1039 1100 1197 1819 2262 2754 2633 2829 2228 2183 2633 2739 3382 3453 3186
4 1 0 0 0 0 0 0 33 25 22 79 14 2 8 1 0 0 0 0 30 106 354 679 793 1039 1234 1466 1759 1156 1026 991 1154 2069 1891 2484 2596 2636 2271 2904 2757 3225 3552 3636
1 7 34 11 2 0 7 0 15 72 77 36 26 51 22 11 6 1 0 0 4 205 430 346 645 888 1177 1773 2469 2276 1338 1081 1040 1241 1460 2061 2512 2525 2381 2803 3143 3140 3574 3705
25 46 32 8 0 0 0 0 31 61 90 100 38 46 62 37 22 41 8 18 40 67 92 192 211 945 2530 2536 2925 2615 1688 1852 1427 1885 1669 2093 2682 2682 2793 2635 3211 3216 3587 3644
73 76 75 57 14 7 0 0 0 0 5 3 5 6 18 17 27 53 8 34 160 124 13 10 307 720 1104 1760 3124 2897 2602 2253 1882 2306 1906 2111 2877 2991 2966 2926 3171 3576 3711 3862
240 203 89 87 57 46 14 0 0 0 0 0 0 0 4 2 13 183 149 235 62 57 64 106 194 406 842 1363 2175 2602 2958 2459 2498 2855 2517 2609 2977 3089 3134 3117 3396 3647 3905 4090
256 260 241 210 117 91 22 0 7 12 0 0 0 2 0 3 4 3 255 133 123 163 165 197 206 268 472 768 1271 1866 2285 3126 3108 2825 3557 2984 3355 3442 3568 3627 3617 3882 4051 4100
119 189 228 140 154 56 36 221 206 183 102 1 31 0 0 0 5 1 155 66 134 298 484 548 517 470 481 504 750 1585 2055 3271 3223 3679 3244 3590 3538 3676 3904 3877 3975 4074 4171 4199
129 217 270 203 149 112 83 190 86 142 141 422 150 130 149 99 73 38 55 0 21 42 185 435 796 975 1061 1098 940 832 1533 2343 3394 3683 3571 3769 3782 4032 4086 4116 4189 4261 4320 4236
289 294 294 257 211 142 57 129 41 148 91 28 41 33 160 192 253 41 0 0 0 0 0 0 455 1955 2116 1944 1455 1621 1717 2476 3080 3341 3649 4086 4066 4186 4309 4426 4472 4473 4384 3629
130 256 298 358 262 156 435 210 63 130 15 13 14 3 0 0 0 0 0 0 0 0 0 0 25 887 3137 2437 2241 2951 2452 3008 3467 3549 3691 4087 4273 3688 3822 4474 4513 4549 4508 4451
61 110 250 204 224 335 249 98 109 30 15 0 30 3 6 1 10 0 1 0 0 0 2 0 0 3 129 1842 2307 3344 3094 4065 3858 3907 3990 4115 4207 4222 4189 4392 4530 4007 4377 3521
65 11 61 40 92 22 6 24 6 30 41 1 24 17 13 15 16 0 0 0 0 2 5 4 2 2 0 0 292 1292 3145 3928 4121 4145 4305 4208 4184 4137 4173 3665 3684 3374 3128 3423
11 8 11 25 0 1 1 24 14 12 14 11 16 8 7 8 13 10 6 4 9 17 11 3 9 7 6 1 1 0 319 2096 3043 3920 3767 4029 3321 3406 3985 3620 3536 3254 3404 2452
16 16 21 17 17 19 25 22 14 14 19 6 0 0 0 0 4 3 26 17 19 22 15 7 7 7 9 1 3 0 0 12 2564 3079 3205 3003 3053 3206 3161 3445 2600 2 674 45
CIN
-0 -0 -0 -0 -0 -0 -0 -0 -0 -0 -22 -1 -1 -9 -47 -0 -0 -0 -1 -4 -1 -1 -1 -10 -10 -17 -18 -20 -10 -3 -0 -0 -0 -0 -0 -0 -0 -0 -2 -2 -0 -0 -0 -0
-0 -0 -0 -0 -0 -0 -0 -0 -0 -0 -0 -7 -1 -3 -6 -0 -0 -0 -1 -3 -1 -0 -0 -12 -17 -14 -18 -22 -8 -0 -0 -0 -0 -0 -0 -0 -0 -0 -0 -0 -0 -0 -0 -0
-0 -0 -0 -0 -0 -0 -0 -0 -0 -0 -0 -2 -0 -5 -0 -89 -0 -0 -0 -0 -1 -1 -0 -6 -24 -35 -35 -16 -10 -0 -0 -0 -0 -0 -0 -0 -0 -0 -0 -1 -0 -0 -0 -0
-0 -0 -0 -0 -0 -0 -0 -0 -0 -0 -0 -0 -2 -0 -117 -55 -0 -0 -0 -0 -0 -7 -0 -2 -11 -27 -50 -45 -23 -0 -0 -0 -0 -0 -0 -0 -0 -0 -0 -0 -0 -0 -0 -0
-0 -0 -0 -0 -0 -0 -0 -0 -0 -0 -0 -0 -0 -0 -7 -15 -2 -0 -0 -0 -0 -0 -25 -27 -40 -38 -34 -35 -39 -18 -0 -0 -0 -0 -1 -0 -0 -0 -0 -1 -1 -0 -0 -0
-0 -0 -0 -0 -0 -0 -0 -0 -0 -0 -0 -0 -0 -0 -13 -17 -14 -0 -0 -0 -0 -0 -9 -29 -45 -11 -12 -21 -26 -5 -0 -0 -0 -0 -6 -0 -0 -1 -0 -0 -0 -0 -0 -0
-0 -0 -0 -0 -0 -0 -0 -0 -0 -0 -0 -0 -0 -0 -0 -2 -29 -67 -0 -0 -0 -0 -6 -26 -39 -52 -46 -16 -16 -3 -0 -0 -0 -0 -1 -0 -0 -1 -0 -0 -0 -0 -0 -0
-0 -0 -0 -0 -0 -0 -0 -0 -0 -0 -0 -0 -0 -0 -0 -0 -14 -66 -9 -7 -0 -1 -1 -18 -51 -80 -57 -36 -19 -5 -0 -0 -0 -0 -0 -0 -0 -11 -4 -0 -0 -0 -0 -0
-0 -0 -0 -0 -0 -0 -0 -0 -0 -0 -0 -0 -0 -0 -0 -0 -0 -36 -57 -5 -1 -0 -1 -9 -47 -69 -68 -51 -32 -31 -1 -0 -0 -0 -0 -0 -0 -2 -3 -0 -0 -0 -0 -0
-0 -0 -0 -0 -0 -0 -0 -0 -0 -0 -0 -0 -0 -0 -0 -0 -0 -0 -0 -0 -2 -28 -0 -0 -14 -65 -93 -97 -75 -28 -8 -0 -2 -0 -0 -0 -0 -0 -0 -0 -0 -0 -0 -0
-0 -0 -0 -0 -0 -0 -0 -0 -0 -0 -0 -0 -0 -0 -0 -0 -0 -0 -0 -0 -0 -0 -0 -0 -0 -29 -76 -81 -69 -71 -32 -4 -3 -0 -0 -0 -0 -4 -3 -0 -0 -0 -0 -0
-0 -0 -0 -0 -0 -0 -0 -0 -0 -0 -0 -0 -0 -0 -0 -0 -0 -0 -0 -0 -12 -0 -1 -1 -0 -3 -22 -43 -71 -86 -101 -90 -55 -15 -0 -0 -0 -2 -1 -0 -0 -0 -0 -0
-0 -0 -0 -0 -0 -0 -0 -0 -0 -0 -0 -0 -0 -0 -2 -1 -0 -0 -0 -0 -0 -0 -0 -1 -0 -0 -18 -28 -29 -84 -96 -114 -102 -37 -28 -0 -0 -0 -1 -0 -0 -0 -0 -0
-0 -0 -0 -0 -2 -0 -0 -0 -0 -0 -0 -0 -0 -0 -0 -2 -1 -2 -0 -0 -0 -0 -0 -1 -1 -0 -5 -10 -16 -42 -94 -99 -102 -96 -66 -27 -6 -1 -2 -0 -0 -0 -0 -0
-1 -0 -0 -0 -0 -0 -0 -0 -0 -0 -0 -0 -0 -0 -0 -0 -1 -0 -1 -1 -2 -14 -2 -1 -1 -0 -1 -0 -0 -23 -55 -34 -65 -59 -68 -55 -25 -10 -0 -0 -0 -0 -0 -1
-0 -0 -0 -0 -1 -0 -0 -0 -0 -0 -0 -0 -20 -23 -16 -43 -31 -2 -11 -0 -11 -18 -18 -20 -0 -0 -1 -2 -3 -15 -25 -41 -51 -34 -89 -68 -23 -13 -10 -2 -0 -0 -0 -0
-0 -0 -0 -1 -0 -0 -0 -0 -0 -0 -0 -0 -0 -0 -0 -43 -48 -2 -2 -10 -16 -30 -15 -30 -43 -9 -0 -13 -19 -29 -37 -32 -15 -9 -42 -30 -33 -38 -21 -16 -1 -0 -0 -0
-0 -0 -0 -0 -0 -0 -0 -0 -0 -0 -0 -0 -0 -30 -0 -6 -7 -3 -14 -21 -56 -68 -70 -90 -101 -101 -87 -38 -6 -39 -26 -26 -17 -32 -1 -22 -8 -25 -13 -3 -5 -4 -3 -3
-0 -0 -0 -0 -0 -0 -0 -11 -17 -13 -20 -0 -0 -0 -0 -0 -0 -1 -2 -69 -88 -91 -98 -109 -111 -125 -159 -149 -98 -11 -36 -28 -22 -21 -40 -27 -26 -18 -6 -5 -4 -2 -3 -4
-0 -0 -0 -0 -0 -0 -0 -7 -49 -29 -0 -37 -1 -2 -0 -6 -21 -0 -59 -0 -134 -143 -165 -143 -142 -147 -147 -174 -160 -136 -82 -70 -60 -60 -87 -27 -15 -1 -7 -8 -6 -7 -7 -12
-0 -0 -0 -0 -0 -0 -0 -0 -51 -5 -19 -128 -80 -36 -2 -0 -9 -53 -0 -0 -0 -0 -0 -0 -281 -68 -93 -110 -152 -129 -91 -84 -112 -49 -24 -13 -12 -2 -0 -0 -0 -2 -11 -19
-0 -0 -0 -0 -0 -0 -1 -0 -0 -0 -43 -35 -65 -41 -0 -0 -0 -0 -0 -0 -0 -0 -0 -0 -377 -235 -17 -36 -77 -82 -117 -69 -28 -37 -33 -28 -16 -30 -14 -0 -0 -1 -1 -3
-0 -0 -0 -0 -0 -2 -0 -9 -8 -20 -1 -0 -0 -0 -0 -0 -0 -0 -0 -0 -0 -0 -0 -0 -0 -65 -633 -201 -42 -30 -97 -0 -12 -22 -21 -20 -21 -13 -2 -4 -0 -17 -3 -25
-0 -0 -0 -6 -3 -31 -0 -0 -0 -0 -0 -0 -0 -0 -0 -0 -0 -0 -0 -0 -0 -0 -0 -0 -0 -0 -0 -0 -571 -339 -13 -1 -1 -4 -1 -13 -23 -20 -5 -24 -18 -32 -37 -30
-0 -0 -0 -0 -0 -0 -0 -0 -0 -0 -0 -0 -0 -0 -0 -0 -0 -0 -0 -0 -0 -0 -0 -0 -0 -0 -0 -0 -0 -0 -671 -192 -36 -3 -19 -7 -43 -47 -16 -21 -25 -55 -21 -68
-0 -0 -0 -0 -0 -0 -0 -0 -0 -0 -0 -0 -0 -0 -0 -0 -0 -0 -0 -0 -0 -0 -0 -0 -0 -0 -0 -0 -0 -0 -0 -534 -113 -31 -26 -41 -45 -41 -49 -17 -110 -56 -555 -1034
Wind_Speed
20 16 19 21 20 21 19 18 21 16 13 17 20 15 18 18 19 20 20 21 23 24 23 22 21 21 20 19 19 17 15 13 10 10 10 9 9 7 5 6 7 7 5 6
14 21 20 18 18 19 20 14 18 17 16 15 16 14 16 19 18 20 20 22 23 23 23 24 23 22 22 21 19 17 15 13 11 9 8 8 7 9 7 6 7 7 7 6
21 11 20 21 19 17 19 19 18 14 17 15 15 12 15 17 18 19 19 21 22 24 26 25 25 24 22 22 20 18 16 15 13 12 8 6 7 5 7 7 8 8 8 8
20 22 9 22 21 19 19 18 20 16 18 15 20 13 10 10 17 20 20 19 22 24 24 24 25 25 25 22 21 18 17 15 14 13 12 12 10 9 7 7 9 10 9 9
15 18 22 19 19 19 17 17 17 18 19 17 20 17 19 34 29 23 22 23 22 24 26 27 28 26 25 23 22 20 18 16 15 15 12 12 12 10 9 9 10 4 8 9
17 15 15 21 17 15 18 18 17 15 15 18 23 21 19 14 12 26 25 24 23 24 25 25 26 24 23 23 22 21 20 18 17 17 16 13 14 11 10 9 9 9 9 9
18 21 17 12 17 21 16 18 14 15 15 18 24 25 18 17 25 28 28 25 25 23 24 24 26 26 25 25 24 21 21 21 20 19 18 15 13 13 9 9 8 9 9 10
13 17 22 17 21 18 23 21 14 24 15 21 25 27 23 25 16 13 17 26 26 26 24 25 27 26 25 25 24 23 23 22 21 20 19 17 15 12 12 10 10 9 8 8
10 21 3 5 15 21 21 26 25 26 21 18 18 28 24 25 25 17 12 22 17 28 25 26 25 25 25 24 25 24 22 23 22 23 18 17 16 16 14 12 12 9 9 7
9 13 16 4 5 17 20 15 22 19 25 26 20 23 19 25 23 26 18 13 24 25 24 23 24 25 24 26 24 24 23 23 21 22 19 18 18 17 14 13 12 13 10 9
16 11 15 17 12 18 16 20 18 19 23 20 19 15 17 24 25 21 25 17 17 20 21 21 22 24 25 24 24 25 24 22 22 21 20 20 18 19 17 13 13 12 11 9
9 13 14 23 12 15 21 24 25 18 22 20 21 16 6 18 24 21 19 23 22 19 19 21 20 23 23 24 24 25 25 26 24 22 20 20 19 19 19 17 16 13 13 12
10 10 14 19 15 16 19 23 17 19 23 23 21 18 14 6 3 10 20 22 21 22 20 16 18 20 22 24 22 24 25 26 25 22 23 21 21 20 19 19 17 16 14 13
8 15 17 15 8 14 14 26 24 23 19 21 21 21 24 11 5 10 13 17 21 20 21 20 21 20 21 21 21 21 24 24 24 24 24 23 22 21 20 17 18 17 16 15
11 19 20 19 21 15 17 19 15 22 18 21 20 25 23 20 13 7 5 7 8 5 9 19 17 16 17 17 19 19 21 20 22 21 22 22 21 20 18 19 18 17 17 16
15 18 19 20 20 17 20 20 19 22 21 21 21 25 23 17 21 15 5 8 4 7 5 9 10 12 15 18 18 19 19 20 21 20 22 19 20 20 20 19 19 17 17 16
14 8 13 19 20 22 23 24 24 24 25 23 22 22 20 18 9 17 6 3 5 8 8 6 9 9 14 18 17 19 20 18 19 18 20 19 19 20 20 19 19 19 18 16
14 11 11 13 18 18 17 16 18 20 27 25 25 25 24 23 13 8 5 6 8 9 9 9 9 10 11 12 18 19 20 20 19 20 18 20 19 20 19 19 20 19 17 17
18 13 7 6 13 15 25 6 8 10 18 26 25 24 25 22 24 13 2 4 7 10 12 11 11 12 11 13 14 16 18 20 19 19 21 21 21 20 19 20 19 17 16 16
20 16 10 14 11 17 15 7 9 9 12 23 10 12 12 16 14 10 13 8 9 10 11 12 13 13 13 14 15 17 20 19 22 21 22 18 18 18 20 19 19 17 15 16
13 13 16 16 12 11 7 4 8 8 2 16 13 17 13 12 11 11 12 11 11 11 12 14 16 13 15 16 17 17 17 21 19 17 17 17 18 18 17 16 15 16 16 15
8 7 11 16 17 17 16 10 7 7 11 12 14 10 14 14 9 12 10 12 13 13 12 13 13 15 15 14 15 16 18 13 15 17 17 17 18 16 15 17 15 16 15 14
3 6 5 5 7 5 6 8 12 15 14 12 13 9 12 14 9 10 11 11 11 12 12 12 13 14 16 20 8 13 13 13 14 15 16 16 16 16 14 16 16 14 14 14
5 7 5 6 4 9 15 13 12 14 14 15 10 7 9 9 9 9 10 11 10 10 12 13 13 14 16 18 18 18 3 10 12 14 14 14 16 16 15 15 14 14 14 14
2 5 4 6 12 18 11 10 12 14 11 5 7 7 8 9 9 8 7 10 11 10 11 12 13 13 14 15 16 18 17 9 13 13 14 15 14 16 15 14 14 14 14 12
3 4 4 1 3 6 4 11 14 14 11 7 7 8 7 6 8 8 8 7 8 10 10 10 11 13 14 14 15 17 18 16 9 10 13 14 14 15 14 14 9 11 9 10
Wind_Direction
197 214 214 215 229 238 268 239 228 213 175 229 219 173 150 194 166 157 166 171 179 182 178 181 187 182 178 179 179 186 185 163 176 179 191 194 178 190 196 189 118 152 182 181
187 222 225 229 231 232 253 260 264 234 189 206 225 230 188 169 174 163 172 174 180 182 178 182 190 187 186 182 182 182 184 170 190 195 203 199 213 182 200 203 154 195 189 176
229 213 221 233 231 237 233 242 245 251 236 208 234 225 234 229 172 164 175 177 181 186 183 183 189 190 191 184 187 183 185 177 188 201 199 201 210 224 200 172 171 189 187 187
226 246 218 217 235 228 237 220 258 259 257 224 222 238 281 281 190 174 178 184 181 185 190 186 188 195 192 189 188 184 187 184 186 208 188 192 204 207 186 212 193 163 197 191
225 228 241 222 235 226 243 252 227 241 254 261 248 226 185 204 196 176 187 184 187 185 188 186 194 194 193 190 188 188 184 190 190 192 218 185 220 201 194 211 140 204 173 204
266 263 236 245 225 237 240 243 256 246 234 241 237 248 228 202 232 190 185 187 194 186 187 190 192 190 196 193 191 190 183 190 197 188 209 201 196 234 212 209 165 188 177 191
230 237 246 248 254 215 214 228 221 222 219 236 224 234 246 199 197 242 181 190 188 191 189 190 186 193 194 194 193 190 185 189 191 191 194 209 206 215 242 182 218 202 209 193
279 218 214 214 232 237 217 230 229 220 222 232 224 222 223 250 210 202 291 181 190 189 188 190 193 193 193 196 191 194 186 190 192 196 194 197 200 205 221 207 209 223 224 213
274 245 162 268 221 231 234 218 240 260 251 255 219 216 237 218 237 169 213 179 219 183 189 189 192 195 194 196 194 193 191 189 194 196 194 192 199 210 202 216 212 221 220 233
300 283 278 251 267 270 265 250 222 235 245 252 244 238 209 215 223 227 224 240 181 202 182 191 191 195 196 198 197 194 196 191 195 199 195 195 194 198 214 205 207 212 225 225
302 287 271 266 212 251 220 250 258 264 223 246 250 245 236 196 208 226 218 220 231 196 187 195 190 192 197 197 198 198 197 196 196 202 197 198 195 197 201 211 202 219 217 225
292 290 266 255 232 249 253 250 235 246 242 227 251 251 288 210 193 212 217 213 222 222 205 192 193 190 193 196 197 197 197 200 197 201 199 198 196 198 198 203 210 203 212 217
293 232 255 249 260 262 262 252 252 267 256 239 228 233 269 125 313 214 212 230 227 220 201 193 199 189 195 193 198 200 197 201 199 199 198 198 201 200 202 197 203 203 206 210
310 277 274 277 288 338 270 229 248 246 246 243 251 232 240 146 179 232 240 216 228 214 226 207 196 191 192 195 192 198 199 200 200 195 202 201 199 201 200 201 198 203 201 203
251 258 265 267 274 274 285 291 255 240 261 261 243 243 259 241 204 203 249 245 240 308 281 214 224 195 178 190 187 191 204 199 201 194 201 199 199 199 199 200 198 201 201 202
244 249 277 274 279 266 261 256 253 263 255 256 266 276 277 297 333 211 229 282 346 307 274 291 226 221 189 190 190 189 200 202 201 196 200 196 192 198 199 198 200 200 202 202
256 251 261 264 260 264 241 241 241 242 242 245 242 251 267 268 284 342 242 307 309 270 303 309 299 270 215 196 196 199 197 206 200 206 196 199 193 197 200 197 196 201 202 202
220 251 253 266 274 245 270 242 249 253 244 236 241 254 258 263 285 294 331 341 317 304 294 283 271 266 269 251 203 200 194 199 211 203 198 197 195 197 196 197 200 199 199 202
246 210 251 242 258 260 258 47 2 332 292 227 235 234 251 260 263 263 304 2 316 302 293 281 275 272 272 267 262 202 200 191 208 204 206 196 198 193 196 199 198 199 201 202
232 229 203 259 248 256 276 46 344 314 248 359 260 219 275 288 286 255 22 340 324 317 306 299 287 281 266 245 249 251 197 199 201 211 202 199 197 198 200 200 198 197 200 205
198 231 208 228 248 260 322 11 322 257 68 338 351 350 320 298 348 3 343 353 340 327 321 343 310 282 255 242 228 232 239 201 202 203 200 196 199 200 198 197 199 200 202 207
182 205 220 238 238 244 18 307 295 0 313 332 329 338 339 324 354 346 343 355 356 342 336 349 343 333 320 261 225 218 232 221 186 190 200 194 195 198 192 195 195 200 200 207
278 351 297 301 256 16 1 319 318 316 294 291 295 308 318 306 344 339 345 345 352 351 352 360 354 350 355 349 292 211 221 212 179 184 192 195 191 193 196 189 194 195 198 208
355 358 285 325 227 350 340 325 319 306 295 262 274 295 301 314 319 344 344 344 347 1 8 8 359 4 6 2 5 3 232 172 173 185 190 194 187 189 202 186 194 202 202 206
320 314 290 297 330 324 297 319 332 325 334 47 13 5 10 351 350 343 333 343 352 356 10 14 7 6 13 3 2 3 0 319 191 192 194 192 192 191 194 194 195 196 207 205
310 342 342 327 333 326 26 359 345 336 333 354 21 345 348 328 307 320 307 322 343 6 7 12 7 5 6 8 2 2 358 354 302 194 200 194 193 184 190 195 171 54 98 109